Weather History for Easton, MD

Change the Weather History Date:

Thursday, June 20, 2013

  Actual Average Record
Temperature  
Mean Temperature 68 °F -  
Max Temperature 80 °F 85 °F 96 °F (2012)
Min Temperature 56 °F 66 °F 49 °F (1956)
Cooling Degree Days 3    
Growing Degree Days 18 (Base 50)    
Moisture  
Dew Point 59 °F    
Average Humidity 82    
Maximum Humidity 100    
Minimum Humidity 45    
Precipitation  
Precipitation 0.00 in - - ()
Sea Level Pressure  
Sea Level Pressure 30.27 in    
Wind  
Wind Speed 2 mph (South)    
Max Wind Speed 8 mph    
Max Gust Speed -    
Visibility 10 miles    
Events      
Averages and records for this station are not official NWS values.
T = Trace of Precipitation, MM = Missing Value Source: NWS Daily Summary

Daily Weather History Graph

Daily Weather History Graph

Search for Another Location

Airport:

Trip Planner

Search our weather history database for the weather conditions in past years. The results will help you decide how hot, cold, wet, or windy it might be!

Date:

Astronomy

Jun. 20, 2013 Rise Set
Actual Time 5:39 AM EDT 8:32 PM EDT
Civil Twilight 5:07 AM EDT 9:04 PM EDT
Nautical Twilight 4:26 AM EDT 9:44 PM EDT
Astronomical Twilight 3:40 AM EDT 10:31 PM EDT
Moon 5:33 PM EDT (6/20) 3:02 AM EDT (6/20)
Length of Visible Light 15h 57m
Length of Day
14h 53m
Waxing Gibbous, 89% of the Moon is Illuminated
Jun 20
Waxing Gibbous
Jun 23
Full
Jun 30
Last Quarter
Jul 8
New
Jul 15
First Quarter

Hourly Weather History & Observations

Time (EDT) Temp. Heat Index Dew Point Humidity Pressure Visibility Wind Dir Wind Speed Gust Speed Precip Events Conditions
12:15 AM 61.5 °F - 59.5 °F 93% 30.21 in 10.0 mi Calm Calm - N/A   Clear
12:35 AM 60.8 °F - 59.4 °F 95% 30.22 in 10.0 mi SSE 3.5 mph - N/A   Clear
12:55 AM 60.3 °F - 60.3 °F 100% 30.22 in 10.0 mi SSE 4.6 mph - N/A   Clear
1:15 AM 60.1 °F - 60.1 °F 100% 30.23 in 10.0 mi Calm Calm - N/A   Clear
1:35 AM 59.9 °F - 59.9 °F 100% 30.23 in 10.0 mi Calm Calm - N/A   Clear
1:55 AM 59.4 °F - 59.4 °F 100% 30.23 in 10.0 mi Calm Calm - N/A   Clear
2:15 AM 59.4 °F - 59.4 °F 100% 30.23 in 10.0 mi Calm Calm - N/A   Clear
2:35 AM 59.5 °F - 59.5 °F 100% 30.23 in 10.0 mi Calm Calm - N/A   Clear
2:55 AM 59.0 °F - 59.0 °F 100% 30.23 in 10.0 mi Calm Calm - N/A   Clear
3:15 AM 58.5 °F - 58.5 °F 100% 30.23 in 10.0 mi Calm Calm - N/A   Clear
3:35 AM 58.3 °F - 58.3 °F 100% 30.24 in 10.0 mi Calm Calm - N/A   Clear
3:55 AM 57.9 °F - 57.9 °F 100% 30.24 in 10.0 mi Calm Calm - N/A   Clear
4:15 AM 57.4 °F - 57.4 °F 100% 30.23 in 10.0 mi Calm Calm - N/A   Clear
4:35 AM 57.2 °F - 57.2 °F 100% 30.24 in 10.0 mi Calm Calm - N/A   Clear
4:55 AM 56.8 °F - 56.8 °F 100% 30.24 in 10.0 mi Calm Calm - N/A   Clear
5:15 AM 57.2 °F - 57.2 °F 100% 30.25 in 10.0 mi Calm Calm - N/A   Clear
5:35 AM 57.6 °F - 57.6 °F 100% 30.25 in 10.0 mi Calm Calm - N/A   Clear
5:53 AM 57.2 °F - 57.2 °F 100% 30.26 in 7.0 mi Calm Calm - N/A   Clear
5:55 AM 57.7 °F - 57.7 °F 100% 30.26 in 10.0 mi Calm Calm - N/A   Clear
6:15 AM 59.4 °F - 59.4 °F 100% 30.26 in 7.0 mi Calm Calm - N/A   Clear
6:35 AM 61.7 °F - 61.7 °F 100% 30.27 in 10.0 mi Calm Calm - N/A   Clear
6:53 AM 66.2 °F - 64.4 °F 94% 30.28 in 10.0 mi Calm Calm - N/A   Partly Cloudy
6:56 AM 66.0 °F - 64.8 °F 96% 30.28 in 10.0 mi Calm Calm - N/A   Clear
7:16 AM 68.0 °F - 63.9 °F 87% 30.28 in 10.0 mi Calm Calm - N/A   Clear
7:36 AM 67.1 °F - 62.8 °F 86% 30.28 in 10.0 mi Calm Calm - N/A   Clear
7:42 AM 67.1 °F - 62.8 °F 86% 30.28 in 10.0 mi Calm Calm - N/A   Clear
7:53 AM 66.2 °F - 62.6 °F 88% 30.29 in 10.0 mi Calm Calm - N/A   Partly Cloudy
8:53 AM 71.6 °F - 57.2 °F 60% 30.30 in 10.0 mi SSE 4.6 mph - N/A   Clear
9:53 AM 73.4 °F - 55.4 °F 53% 30.31 in 10.0 mi SE 5.8 mph - N/A   Clear
10:53 AM 77.0 °F - 55.4 °F 47% 30.32 in 10.0 mi SE 5.8 mph - N/A   Partly Cloudy
11:53 AM 78.8 °F - 57.2 °F 47% 30.32 in 10.0 mi SE 4.6 mph - N/A   Partly Cloudy
12:53 PM 80.6 °F 80.8 °F 57.2 °F 45% 30.31 in 10.0 mi SSE 6.9 mph - N/A   Scattered Clouds
1:53 PM 80.6 °F 80.8 °F 57.2 °F 45% 30.30 in 20.0 mi SSW 8.1 mph - N/A   Scattered Clouds
2:53 PM 80.6 °F 80.8 °F 57.2 °F 45% 30.29 in 10.0 mi SSE 5.8 mph - N/A   Scattered Clouds
3:57 PM 78.8 °F - 59.0 °F 51% 30.29 in 10.0 mi South 4.6 mph - N/A   Scattered Clouds
4:58 PM 80.6 °F 81.8 °F 62.6 °F 54% 30.29 in 10.0 mi West 5.8 mph - N/A   Scattered Clouds
5:50 PM 80.6 °F 81.1 °F 59.0 °F 48% 30.28 in 10.0 mi West 6.9 mph - N/A   Scattered Clouds
6:50 PM 77.0 °F - 59.0 °F 54% 30.28 in 10.0 mi WSW 6.9 mph - N/A   Partly Cloudy
7:48 PM 73.4 °F - 59.0 °F 61% 30.30 in 10.0 mi SW 5.8 mph - N/A   Partly Cloudy
8:51 PM 68.0 °F - 55.4 °F 64% 30.31 in 10.0 mi SE 5.8 mph - N/A   Clear
10:57 PM 63.7 °F - 53.6 °F 70% 30.31 in 10.0 mi Calm Calm - N/A   Clear
11:17 PM 62.8 °F - 54.0 °F 73% 30.31 in 10.0 mi Calm Calm - N/A   Clear
11:37 PM 62.1 °F - 53.6 °F 74% 30.31 in 10.0 mi South 3.5 mph - N/A   Clear
11:58 PM 61.5 °F - 53.1 °F 74% 30.31 in 10.0 mi Calm Calm - N/A   Clear